[[{"header":{"parameterUnit":"m.s-1","parameterCategory":1,"la1":30.2991,"la2":30.254,"lo1":-89.0895,"lo2":-89.0444,"dy":0.0017,"dx":0.0017,"nx":28,"ny":28,"refTime":"2024-08-20T03:00:00:Z","depth":0,"parameterNumber":2,"parameterNumberName":"U-component_of_WINDS"},"data":[0,0,0,0,0,0,0,0,0,0,0,0,0,0,0,0,0,0,0,0,0,0,0,0,0,0,0,0,0,0,0,0,0,0,0,0,0,0,0,0,0,0,0,0,0,0,0,0,0,0,0,0,0,0,0,0,0,0,1.5531,1.5532,0,1.562,1.5621,1.5622,1.5606,1.5605,1.5603,1.5601,1.5698,1.5702,1.5706,0,0,0,0,0,0,0,0,0,0,0,0,0,1.5353,1.5356,1.5531,1.5532,1.5533,1.562,1.5621,1.5622,1.5606,1.5604,1.5603,1.5601,1.5697,1.5701,1.5706,0,0,0,0,0,0,0,0,0,0,0,0,0,1.5435,1.5357,1.5531,1.5535,1.5537,1.562,1.5621,1.5623,1.5607,1.5604,1.5602,1.56,1.5695,1.5701,1.5707,1.5792,0,0,1.5725,1.5728,0,0,0,0,0,0,0,0,1.543,1.5441,1.5534,1.5535,1.5537,1.5599,1.5594,1.568,1.5607,1.558,1.5601,1.5599,1.5667,1.5676,1.5698,1.5797,1.5801,1.5726,1.573,1.5732,1.5734,0,0,0,0,0,0,0,1.5425,1.5438,1.5566,1.5535,1.5537,1.5535,1.5544,1.561,1.5636,1.5583,1.5582,1.5592,1.5668,1.5692,1.57,1.5802,1.5726,1.5731,1.5735,1.5737,1.5979,1.5981,0,0,0,0,0,0,1.5417,1.5433,1.5563,1.5569,1.5476,1.554,1.555,1.5582,1.5636,1.5641,1.5594,1.5591,1.5683,1.5693,1.5703,1.5809,1.5732,1.5738,1.5741,1.5976,1.5979,1.5982,0,0,0,0,0,0,1.5413,1.5428,1.556,1.5501,1.5517,1.5546,1.5581,1.5585,1.5609,1.5644,1.5649,1.5613,1.5681,1.5695,1.577,1.5812,1.5741,1.5746,1.5973,1.5977,1.5981,1.602,0,0,0,0,0,0,1.5408,1.5427,1.5458,1.5501,1.552,1.5624,1.5584,1.5588,1.5619,1.5616,1.5664,1.5669,1.568,1.5761,1.5776,1.5819,1.5751,1.5969,1.5974,1.5979,1.6015,1.6025,1.6033,0,0,0,0,0,1.5401,1.5466,1.546,1.5476,1.556,1.5626,1.5637,1.5647,1.5622,1.5655,1.5678,1.5668,1.5804,1.5769,1.5786,1.5831,1.5966,1.5973,1.5979,1.6011,1.6023,1.6033,0,0,0,0,0,0,1.5429,1.5472,1.5465,1.5546,1.5582,1.5623,1.5665,1.5659,1.5705,1.57,1.5712,1.5723,1.5801,1.5823,1.5783,1.5918,1.5882,1.5892,1.5901,1.5912,1.5921,1.5916,1.5756,0,0,0,0,0,1.5444,1.5492,1.5528,1.5596,1.5614,1.5636,1.5666,1.567,1.5709,1.5725,1.5753,1.5793,1.5845,1.588,1.5929,1.6017,1.6029,1.6057,1.6066,1.6073,1.6082,1.6133,1.6147,1.6003,1.6002,1.6002,0,0,1.5476,1.5506,1.5536,1.5602,1.5631,1.5683,1.565,1.5706,1.5746,1.5734,1.5808,1.583,1.5875,1.5958,1.5996,1.598,1.6124,1.6081,1.6086,1.6092,1.6141,1.6155,1.6167,1.6007,1.6006,1.6005,0,0,1.5563,1.5588,1.5649,1.5678,1.5722,1.5736,1.5751,1.5793,1.5807,1.5881,1.5874,1.5922,1.601,1.6044,1.6073,1.6172,1.6166,1.6188,1.6237,1.6286,1.6298,1.6308,1.6347,1.636,1.6197,1.6197,1.6197,0,1.5598,1.5675,1.5681,1.5739,1.5769,1.5759,1.5822,1.5851,1.5909,1.5932,1.5911,1.6023,1.6053,1.6145,1.6169,1.6192,1.6211,1.6184,1.6295,1.6306,1.6315,1.6352,1.6367,1.6199,1.6199,1.6199,1.6199,0,1.5718,1.5772,1.5815,1.5871,1.5906,1.5966,1.5983,1.6018,1.602,1.6037,1.6114,1.6148,1.6206,1.6228,1.623,1.6321,1.631,1.6292,1.6257,1.6332,1.6367,1.6381,1.6203,1.6202,1.6201,1.6201,0,0,1.5826,1.5884,1.59,1.5926,1.5974,1.6017,1.6077,1.6132,1.6163,1.6203,1.6257,1.6332,1.6316,1.6349,1.6354,1.6398,1.6478,1.6375,1.6377,1.6396,1.6585,1.66,1.6616,1.6473,1.6476,1.6478,1.6582,0,1.592,1.6025,1.6032,1.6128,1.6179,1.6171,1.6224,1.626,1.6277,1.6325,1.6345,1.64,1.6373,1.6393,1.6435,1.6459,1.6517,1.6452,1.6526,1.6528,1.6518,1.6634,1.665,1.6746,1.6595,1.6598,1.6599,0,1.6043,1.6086,1.6187,1.6229,1.6251,1.6298,1.635,1.6394,1.6436,1.6446,1.6483,1.6483,1.6547,1.6507,1.6598,1.6554,1.6584,1.6601,1.6605,1.6615,1.6571,1.665,1.6777,1.6793,1.662,1.6619,1.6617,0,1.6116,1.6199,1.6271,1.6293,1.6343,1.6377,1.6399,1.6438,1.6471,1.6517,1.6539,1.6592,1.6622,1.6664,1.668,1.6649,1.6771,1.6732,1.6784,1.6784,1.6813,1.6812,1.695,1.6827,1.6827,1.6827,1.6826,0,1.6222,1.6285,1.6305,1.6349,1.642,1.6428,1.6499,1.652,1.6555,1.6605,1.66,1.6648,1.6663,1.6714,1.6726,1.6802,1.6814,1.6826,1.683,1.6829,1.6828,1.6851,1.6847,1.683,1.683,1.6829,1.6828,0,1.6317,1.6332,1.641,1.645,1.6462,1.6513,1.6548,1.6593,1.6608,1.6672,1.6688,1.6715,1.6774,1.6793,1.6865,1.6873,1.6962,1.6958,1.6948,1.695,1.7002,1.6998,1.7163,1.7187,1.7045,1.7046,1.7047,0,1.6385,1.6433,1.6478,1.651,1.6534,1.6586,1.662,1.663,1.6666,1.6717,1.6756,1.6814,1.6862,1.6958,1.6986,1.7042,1.7041,1.7094,1.7049,1.7048,1.7046,1.7044,1.705,1.7104,1.7106,1.7107,1.7108,0,1.6505,1.651,1.6558,1.6609,1.6649,1.669,1.673,1.6757,1.6773,1.6814,1.6874,1.6911,1.6984,1.7044,1.7101,1.7126,1.7122,1.7121,1.7137,1.7138,1.7132,1.714,1.6975,1.7118,1.7117,1.7116,1.7116,1.7115,1.6591,1.6635,1.6673,1.6727,1.6758,1.6795,1.6839,1.686,1.691,1.697,1.6973,1.7039,1.7081,1.7156,1.7185,1.7238,1.7223,1.7245,1.7251,1.7257,1.7263,1.7121,1.7248,1.7248,1.7248,1.7247,1.7247,0,1.6715,1.6739,1.6788,1.6843,1.6886,1.6874,1.6918,1.6955,1.7013,1.7051,1.7098,1.7169,1.7227,1.7258,1.7316,1.7353,1.7352,1.7368,1.7368,1.7374,1.7272,1.7254,1.7368,1.7368,1.7368,1.7368,1.7368,1.7368,1.6784,1.6857,1.6867,1.6957,1.6981,1.7044,1.7071,1.7106,1.7137,1.7215,1.7263,1.7282,1.7318,1.7379,1.7432,1.744,1.7464,1.7482,1.7489,1.7393,1.7381,1.7369,1.7353,1.7486,1.7486,1.7587,1.7588,1.7589]},{"header":{"parameterUnit":"m.s-1","parameterCategory":1,"la1":30.2991,"la2":30.254,"lo1":-89.0895,"lo2":-89.0444,"dy":0.0017,"dx":0.0017,"nx":28,"ny":28,"refTime":"2024-08-20T03:00:00:Z","depth":0,"parameterNumber":3,"parameterNumberName":"V-component_of_WINDS"},"data":[0,0,0,0,0,0,0,0,0,0,0,0,0,0,0,0,0,0,0,0,0,0,0,0,0,0,0,0,0,0,0,0,0,0,0,0,0,0,0,0,0,0,0,0,0,0,0,0,0,0,0,0,0,0,0,0,0,0,-0.989,-0.9891,0,-0.9987,-0.9988,-0.9989,-1.0183,-1.0187,-1.0191,-1.0195,-1.0289,-1.0288,-1.0287,0,0,0,0,0,0,0,0,0,0,0,0,0,-0.9873,-0.9872,-0.989,-0.9891,-0.9893,-0.9987,-0.9988,-0.9989,-1.0183,-1.0187,-1.0192,-1.0196,-1.0289,-1.0288,-1.0287,0,0,0,0,0,0,0,0,0,0,0,0,0,-0.9915,-0.9872,-0.989,-1.0001,-1.0011,-0.9986,-0.9988,-0.999,-1.0182,-1.0187,-1.0193,-1.0199,-1.029,-1.0288,-1.0286,-1.016,0,0,-1.0281,-1.0281,0,0,0,0,0,0,0,0,-0.9913,-0.9916,-0.9983,-0.9993,-1.0005,-1.0079,-1.0016,-1.0046,-1.018,-1.0117,-1.0195,-1.0201,-1.0214,-1.0219,-1.0224,-1.0164,-1.0168,-1.0281,-1.028,-1.0279,-1.0279,0,0,0,0,0,0,0,-0.9909,-0.9913,-0.9928,-0.9984,-0.9997,-1.0045,-1.0058,-1.0023,-1.0131,-1.0123,-1.0137,-1.0146,-1.0221,-1.0225,-1.0228,-1.017,-1.0281,-1.028,-1.0279,-1.0278,-1.0015,-1.001,0,0,0,0,0,0,-0.9891,-0.9909,-0.9925,-0.9931,-0.9972,-1.0041,-1.0055,-1.0049,-1.0132,-1.0151,-1.0141,-1.0155,-1.0225,-1.0229,-1.0232,-1.0092,-1.028,-1.0278,-1.0277,-1.0021,-1.0014,-1.0007,0,0,0,0,0,0,-0.989,-0.989,-0.9921,-0.9924,-0.9932,-1.0035,-1.0027,-1.0048,-1.0053,-1.0146,-1.0166,-1.0125,-1.023,-1.0234,-1.0178,-1.0097,-1.0277,-1.0276,-1.0028,-1.0019,-1.0011,-0.9808,0,0,0,0,0,0,-0.9888,-0.9889,-0.9842,-0.9922,-0.9931,-0.9865,-1.0022,-1.0046,-1.005,-1.0069,-1.0137,-1.0154,-1.0235,-1.0179,-1.0176,-1.0098,-1.0274,-1.0036,-1.0024,-1.0014,-0.9822,-0.9793,-0.9768,0,0,0,0,0,-0.9887,-0.9779,-0.9838,-0.9839,-0.9874,-0.986,-0.9865,-0.9962,-1.0042,-0.9996,-1.0057,-1.0152,-1.0107,-1.0172,-1.017,-1.009,-1.0041,-1.0027,-1.0014,-0.9834,-0.9798,-0.9769,0,0,0,0,0,0,-0.9684,-0.9791,-0.9858,-0.9773,-0.9806,-0.9893,-0.9837,-0.9921,-0.993,-0.9947,-1.0066,-1.008,-1.0008,-1.0044,-1.0114,-0.9975,-1.009,-1.0075,-0.9953,-0.992,-0.9893,-0.9886,-1.0273,0,0,0,0,0,-0.963,-0.961,-0.9705,-0.962,-0.9634,-0.9732,-0.9729,-0.9802,-0.984,-0.9854,-0.9911,-0.9944,-0.9939,-0.9932,-0.9931,-0.9829,-0.9848,-0.9774,-0.9747,-0.9724,-0.971,-0.9661,-0.963,-0.9963,-0.9963,-0.9964,0,0,-0.9516,-0.9572,-0.9552,-0.9581,-0.9615,-0.9592,-0.9742,-0.971,-0.9695,-0.9849,-0.98,-0.9843,-0.9888,-0.9809,-0.9777,-0.9837,-0.9623,-0.9707,-0.9688,-0.9686,-0.9644,-0.9613,-0.9584,-0.9954,-0.9956,-0.9957,0,0,-0.9298,-0.9338,-0.9274,-0.9306,-0.9357,-0.9424,-0.9409,-0.9484,-0.9519,-0.9472,-0.9589,-0.9572,-0.9558,-0.9586,-0.9599,-0.9396,-0.9484,-0.9392,-0.925,-0.9202,-0.9176,-0.9153,-0.9082,-0.9055,-0.9378,-0.9378,-0.9377,0,-0.915,-0.912,-0.9229,-0.9192,-0.9201,-0.9344,-0.928,-0.9305,-0.9352,-0.9356,-0.9423,-0.9412,-0.9452,-0.9383,-0.9334,-0.9339,-0.9325,-0.9384,-0.9171,-0.9149,-0.913,-0.9063,-0.9036,-0.9366,-0.9368,-0.9369,-0.937,0,-0.8937,-0.8915,-0.8857,-0.8902,-0.8905,-0.8854,-0.8955,-0.8946,-0.9019,-0.9079,-0.9031,-0.9085,-0.9099,-0.9088,-0.9157,-0.9029,-0.9065,-0.915,-0.9267,-0.9085,-0.9024,-0.8999,-0.935,-0.9354,-0.9357,-0.936,0,0,-0.8589,-0.8699,-0.8676,-0.87,-0.8769,-0.8754,-0.871,-0.8726,-0.8716,-0.8745,-0.8712,-0.87,-0.878,-0.8794,-0.8869,-0.8826,-0.8664,-0.8917,-0.892,-0.8868,-0.8528,-0.8463,-0.8432,-0.8724,-0.8719,-0.8716,-0.8524,0,-0.8387,-0.8319,-0.8418,-0.8328,-0.831,-0.8447,-0.841,-0.8448,-0.8504,-0.8497,-0.8559,-0.8548,-0.8654,-0.8664,-0.8628,-0.8691,-0.8597,-0.8706,-0.8694,-0.8692,-0.8677,-0.84,-0.8331,-0.8148,-0.8501,-0.8497,-0.8495,0,-0.814,-0.816,-0.8068,-0.8147,-0.8143,-0.8107,-0.8132,-0.8124,-0.8171,-0.8215,-0.8233,-0.8323,-0.8287,-0.8402,-0.8354,-0.8426,-0.8428,-0.8458,-0.8453,-0.8455,-0.8581,-0.8394,-0.8091,-0.8063,-0.8458,-0.8461,-0.8464,0,-0.7896,-0.7901,-0.7848,-0.7864,-0.7953,-0.7926,-0.7961,-0.8015,-0.8019,-0.8041,-0.8046,-0.8061,-0.807,-0.808,-0.8173,-0.8248,-0.8114,-0.8237,-0.815,-0.8147,-0.8114,-0.8114,-0.7806,-0.8115,-0.8115,-0.8116,-0.8116,0,-0.7659,-0.7598,-0.774,-0.7707,-0.7644,-0.7759,-0.7692,-0.7742,-0.7789,-0.7769,-0.7889,-0.7866,-0.7991,-0.7983,-0.8055,-0.8005,-0.8008,-0.8043,-0.8062,-0.8031,-0.8027,-0.8033,-0.8048,-0.8108,-0.811,-0.8111,-0.8113,0,-0.7375,-0.7468,-0.742,-0.751,-0.7532,-0.7481,-0.7559,-0.7532,-0.7598,-0.7571,-0.7571,-0.7673,-0.767,-0.7764,-0.7779,-0.7828,-0.7747,-0.779,-0.7731,-0.7744,-0.7652,-0.7659,-0.7336,-0.7301,-0.7631,-0.7628,-0.7625,0,-0.7217,-0.7174,-0.7261,-0.7257,-0.7288,-0.7279,-0.7286,-0.7399,-0.74,-0.7453,-0.742,-0.7428,-0.744,-0.7429,-0.7504,-0.7517,-0.7561,-0.7448,-0.7564,-0.7535,-0.756,-0.7561,-0.7558,-0.7422,-0.7418,-0.7414,-0.7412,0,-0.6927,-0.6976,-0.6982,-0.7004,-0.7009,-0.7031,-0.7061,-0.7051,-0.7174,-0.717,-0.717,-0.7179,-0.7197,-0.7203,-0.7232,-0.7269,-0.736,-0.7375,-0.7356,-0.7323,-0.7291,-0.7308,-0.7664,-0.7381,-0.7384,-0.7387,-0.7388,-0.7389,-0.6702,-0.6671,-0.6729,-0.6732,-0.6767,-0.6793,-0.6774,-0.6839,-0.6841,-0.6865,-0.6932,-0.6921,-0.6973,-0.7021,-0.705,-0.7044,-0.71,-0.7071,-0.7064,-0.7055,-0.7038,-0.7293,-0.7049,-0.705,-0.7051,-0.7052,-0.7052,0,-0.6419,-0.6464,-0.6465,-0.6505,-0.6508,-0.6597,-0.6636,-0.6632,-0.6621,-0.6663,-0.6674,-0.6674,-0.6682,-0.6759,-0.6777,-0.6756,-0.6799,-0.6757,-0.6759,-0.6767,-0.6986,-0.7002,-0.6722,-0.6722,-0.6723,-0.6723,-0.6723,-0.6723,-0.6271,-0.6225,-0.6281,-0.6254,-0.63,-0.6292,-0.6306,-0.6332,-0.6366,-0.6362,-0.637,-0.6422,-0.6478,-0.6501,-0.6512,-0.6535,-0.6536,-0.6479,-0.6516,-0.6719,-0.6751,-0.6781,-0.6796,-0.6479,-0.6478,-0.6297,-0.6296,-0.6294]}]]